Theta_e
342 347 350 352 355 356 355 355 355 355 354 354 354 353 353 352 351 350 350 350 350 349 349 349 349 349 349 349 352 352 352 352 352 351 352 352 350 349 349 349 348 349 348 348 348 348 349 349 349 348 346 346 346 345 345 346 347 347 347 348 348 348 349 348 348 348 348 349 350 350 350 350 351 351 351 350 350 350 349 349 348 346 346 349 351
343 349 350 352 355 355 355 355 355 355 354 354 354 354 353 351 351 350 350 349 349 349 349 349 349 349 349 351 351 351 351 351 351 351 351 351 351 350 349 349 348 348 348 347 348 347 347 346 346 345 345 344 344 343 343 342 342 345 345 346 347 348 348 348 348 348 347 347 349 349 349 349 349 349 349 349 350 349 348 348 348 346 345 349 350
345 349 350 352 353 355 355 355 354 354 355 354 354 353 352 351 350 349 349 349 349 348 349 348 349 349 349 351 350 351 350 350 350 350 351 351 350 350 349 348 347 347 348 348 347 346 346 345 343 343 342 341 341 341 341 342 341 341 344 345 346 347 347 347 347 347 347 348 346 348 347 347 347 348 348 349 348 348 347 347 347 347 344 349 349
345 348 350 349 350 353 355 354 354 354 353 353 353 353 352 351 350 349 349 349 348 348 348 348 349 350 349 350 350 349 349 349 349 349 349 350 350 349 348 347 347 346 347 347 346 346 345 343 343 342 341 340 339 338 337 339 340 341 341 343 345 346 347 347 345 345 346 347 347 344 345 343 344 347 348 348 347 347 345 346 346 347 346 345 347
343 349 350 351 351 351 354 354 353 353 353 353 353 352 352 351 350 349 349 348 348 348 347 348 349 349 349 349 349 349 349 348 348 348 349 349 349 348 348 347 347 347 346 347 346 346 344 344 343 342 340 338 337 336 335 334 337 338 340 341 344 346 346 346 345 345 345 345 345 344 343 343 342 346 347 348 347 346 345 344 345 346 344 344 343
343 348 350 350 351 352 350 353 354 353 352 352 353 352 352 351 350 349 349 348 347 347 346 346 348 348 350 349 348 348 348 348 347 347 348 348 348 348 348 348 348 347 347 347 347 345 344 344 343 342 339 337 336 334 333 332 335 337 339 341 342 343 344 343 343 343 343 342 342 341 340 341 343 344 347 346 347 345 345 344 344 344 342 343 343
344 349 349 348 349 351 349 353 353 352 353 352 352 352 351 351 351 349 349 348 347 347 346 346 347 348 348 349 348 348 348 347 346 346 347 347 348 348 348 347 348 347 346 346 346 345 344 344 342 340 339 336 335 334 332 331 333 336 339 340 341 340 341 341 339 341 342 339 333 334 337 342 342 343 346 347 346 345 345 344 343 343 342 341 341
344 346 347 348 350 348 348 354 353 353 352 351 352 351 351 351 350 350 349 348 347 347 346 346 347 348 348 349 348 347 347 347 346 346 346 347 346 347 347 346 347 346 346 345 345 345 344 343 341 339 337 335 333 332 330 329 332 336 338 339 339 339 340 340 341 340 340 338 335 333 335 340 341 342 346 346 346 345 345 344 343 343 340 339 338
343 344 346 348 350 346 349 351 353 352 352 352 351 351 350 350 350 349 349 348 347 347 346 346 347 348 347 347 347 347 347 346 346 346 345 345 345 346 347 346 346 345 345 345 345 345 344 341 339 338 336 334 332 331 329 329 333 336 336 337 337 337 336 338 339 338 337 337 333 328 331 336 341 340 345 346 345 345 343 341 340 338 337 334 334
342 345 344 351 349 345 349 351 353 352 351 351 351 351 350 350 350 349 349 348 347 347 347 347 346 347 347 347 347 347 347 346 346 346 346 346 344 344 345 346 346 345 344 345 344 345 343 341 338 336 335 334 331 329 327 330 333 335 335 336 334 335 337 337 335 334 336 334 332 326 329 343 340 341 344 345 344 343 339 338 336 335 334 333 333
342 342 350 351 348 345 351 353 352 351 351 351 350 351 351 350 350 349 349 348 348 347 347 347 346 346 346 347 347 347 347 346 346 345 345 345 345 345 345 346 345 344 343 344 344 344 343 340 337 335 335 333 331 329 327 329 332 333 335 335 334 336 336 335 333 333 332 331 328 331 336 343 340 339 343 343 344 342 338 336 335 335 333 332 332
340 346 348 346 345 343 349 350 351 351 351 351 351 350 349 350 350 350 350 349 348 347 347 346 346 347 347 346 346 346 346 346 345 344 345 345 345 345 346 346 344 343 343 343 344 343 342 340 337 335 334 332 331 329 326 328 332 333 333 333 335 336 335 334 329 330 331 331 326 332 335 339 340 341 344 344 343 341 339 336 335 336 333 331 333
341 342 347 347 345 341 344 348 349 351 351 351 350 350 349 349 350 350 349 349 349 348 347 346 348 347 346 346 345 346 346 346 345 345 345 344 344 345 344 344 343 343 342 342 342 342 340 338 336 335 334 332 331 329 326 327 330 331 331 332 334 334 332 331 328 328 329 330 331 334 337 336 337 342 342 342 341 339 339 337 335 334 333 332 334
338 339 343 347 344 340 336 340 344 350 351 351 350 349 349 349 349 349 349 349 349 348 347 346 346 347 347 346 346 345 346 346 345 345 344 343 344 344 344 343 343 343 342 342 341 339 338 337 336 335 333 332 330 329 326 325 328 329 329 330 331 331 329 329 331 328 327 328 327 332 335 335 335 340 338 339 339 338 338 336 335 333 331 333 333
336 336 337 342 344 342 336 335 339 342 348 350 350 349 349 347 348 348 349 348 348 348 347 346 346 347 347 347 346 346 345 345 345 343 343 343 343 343 342 342 342 342 342 341 339 338 337 336 335 334 333 331 330 328 326 325 326 328 328 328 329 329 328 323 328 327 327 329 327 332 333 335 339 338 339 339 339 338 337 335 334 330 330 332 332
334 334 336 336 340 342 343 338 334 335 339 343 346 348 348 348 348 348 348 347 347 347 347 346 346 347 346 346 346 345 345 345 344 344 343 343 344 342 342 339 340 341 341 341 339 337 336 335 334 333 331 331 330 328 325 324 325 326 327 327 328 328 325 322 323 326 324 324 328 330 331 333 339 338 337 336 336 335 335 335 331 328 331 332 331
334 333 334 335 336 337 342 343 339 333 334 335 337 341 345 347 347 347 347 347 346 347 347 346 345 347 347 346 346 345 345 345 344 343 343 343 343 342 341 341 340 341 341 340 339 337 335 334 333 332 330 330 330 327 324 322 323 324 325 325 326 327 323 320 323 323 323 324 328 328 329 332 337 339 338 337 335 335 335 333 329 330 331 331 331
331 332 332 333 335 335 337 340 342 343 343 337 334 337 341 345 346 345 345 346 346 347 348 347 347 346 346 346 344 344 345 345 344 343 340 342 342 341 341 340 340 340 340 339 338 336 335 333 332 331 331 330 328 327 323 321 322 322 323 323 326 323 321 320 321 323 323 327 325 326 327 334 336 337 336 335 335 335 334 331 328 330 331 330 330
322 326 325 327 332 335 336 336 338 341 342 342 342 339 335 339 341 342 342 343 343 343 343 343 343 345 344 341 339 338 337 338 339 340 340 339 335 334 341 341 340 340 340 339 338 336 334 333 332 331 330 329 327 325 322 320 320 320 321 324 321 317 318 319 318 320 323 321 323 323 327 333 335 336 333 334 333 333 332 329 329 330 330 330 329
317 318 318 320 323 333 335 335 336 338 339 341 342 343 333 332 336 338 339 340 341 340 338 335 334 335 335 333 330 330 329 333 328 333 334 338 334 333 336 338 339 340 340 339 337 335 334 333 332 331 330 328 326 323 321 319 319 318 321 319 318 314 314 314 315 318 320 321 320 320 328 332 334 335 333 333 332 332 331 330 330 329 329 329 329
318 315 315 316 318 320 324 332 333 334 337 339 341 343 339 328 330 331 333 336 337 336 336 327 323 323 327 323 323 337 338 338 329 337 327 335 323 325 333 337 340 341 340 339 337 335 334 333 332 331 330 327 324 321 320 318 318 317 316 316 313 310 312 313 315 317 317 317 316 319 326 330 331 334 332 332 331 331 329 329 330 329 329 329 328
313 313 314 316 316 317 318 319 330 332 335 338 340 343 339 335 342 339 338 334 330 329 331 336 333 339 325 330 337 339 340 340 339 336 335 334 325 323 328 336 340 337 338 339 337 336 334 334 333 331 330 327 321 312 310 315 316 314 314 311 308 306 310 310 312 315 313 314 313 319 323 328 330 333 331 330 329 330 328 329 329 328 327 328 327
310 312 313 314 315 316 318 318 319 330 332 334 338 338 343 341 341 342 342 334 336 335 338 337 339 340 339 340 337 340 337 337 339 337 337 329 332 322 327 332 336 333 336 338 338 336 335 334 333 331 329 329 317 318 314 308 307 309 308 308 305 305 308 308 309 311 313 313 309 318 318 322 328 331 332 333 334 330 328 328 328 327 327 327 327
310 311 311 315 315 315 316 318 318 319 329 332 335 336 336 337 337 340 341 341 341 340 339 340 340 339 340 339 337 336 336 337 331 328 333 335 327 321 326 328 330 329 331 333 334 335 335 335 333 331 328 320 320 320 316 313 310 309 310 305 303 302 304 305 306 308 311 314 309 316 315 317 322 327 331 333 333 332 332 328 327 327 327 327 326
310 311 312 314 315 315 315 317 318 319 324 331 331 334 336 335 336 337 337 340 339 338 338 337 338 339 339 338 338 337 337 337 335 335 337 337 333 331 330 331 330 330 327 332 331 331 329 328 324 323 321 323 323 320 319 316 315 314 312 310 306 302 303 304 306 304 306 306 307 315 314 315 317 321 325 328 330 331 331 332 333 331 328 327 325
310 310 311 313 315 315 314 316 318 318 320 329 331 332 334 334 335 335 336 339 340 338 337 338 337 336 336 336 336 336 335 335 334 335 333 333 333 333 333 333 333 333 331 332 330 330 328 327 326 326 328 325 323 320 318 316 316 314 311 309 310 306 303 302 304 305 303 306 307 315 314 314 315 315 317 320 323 326 328 329 330 332 333 334 327
308 310 312 314 315 315 314 316 317 317 321 327 331 332 333 334 335 333 334 334 336 335 334 335 336 337 337 336 336 335 334 333 333 334 334 334 333 333 333 332 333 331 331 330 328 330 329 327 329 328 326 324 322 319 317 315 313 313 311 310 309 307 305 304 302 301 301 304 309 314 314 314 313 314 314 315 316 317 320 322 326 329 331 334 335
309 310 312 314 314 314 314 316 317 317 322 327 330 330 332 335 332 330 330 328 330 330 330 330 332 333 333 333 331 331 331 332 332 332 333 332 332 332 332 331 331 332 331 330 328 328 327 327 327 327 326 326 324 319 316 315 314 313 311 310 310 308 307 307 304 304 302 301 304 310 315 312 313 312 313 314 314 315 316 316 319 323 327 331 334
308 310 310 311 312 313 316 319 319 320 324 326 328 330 331 330 329 328 327 325 326 326 326 327 328 329 330 330 329 330 330 331 330 329 329 329 330 331 331 331 331 331 331 330 328 326 327 327 326 324 323 322 321 319 320 319 316 315 314 311 312 310 308 308 307 306 304 303 304 305 315 313 312 312 313 312 313 314 315 315 317 318 320 325 329
309 309 309 310 311 314 320 323 325 325 327 328 328 327 326 325 326 326 325 323 323 323 322 323 324 326 326 327 327 328 329 328 328 328 326 325 326 326 326 327 327 328 329 328 327 327 325 324 323 322 321 320 320 318 319 319 319 316 315 314 313 313 311 310 309 308 307 305 303 303 313 313 312 312 313 312 314 314 314 315 316 317 319 320 322
307 306 307 309 311 315 320 322 324 323 324 323 323 323 323 321 321 321 322 322 322 321 320 321 322 323 323 324 326 326 327 327 327 325 324 324 323 323 322 323 324 325 326 326 326 325 323 322 321 320 319 319 318 318 317 316 318 320 316 314 313 312 311 311 310 309 308 307 308 305 304 312 313 313 312 313 313 313 314 314 315 317 317 319 321
305 305 307 309 312 316 319 319 321 321 320 319 319 320 320 319 318 318 318 318 318 318 318 318 316 318 320 322 323 325 324 324 323 323 321 321 321 320 320 320 320 322 323 323 324 324 322 321 321 319 317 318 317 316 315 315 315 316 315 315 314 313 312 311 310 310 309 309 308 309 307 304 310 314 314 313 313 313 313 314 315 315 318 319 320
305 306 307 310 313 316 317 317 316 316 316 316 316 316 317 316 315 314 314 313 312 312 312 312 313 314 314 315 316 317 319 322 321 320 319 319 318 318 318 318 319 320 321 320 320 320 319 319 319 318 317 316 315 316 315 313 314 315 316 313 312 313 312 311 310 310 310 309 310 308 308 307 307 310 312 313 314 314 313 314 313 315 316 318 320
304 305 307 309 312 314 315 315 313 311 311 311 311 311 311 311 310 310 310 309 308 308 308 308 309 309 310 311 313 313 313 314 318 318 318 318 318 317 316 316 316 318 319 319 317 316 315 315 316 315 313 314 313 314 314 315 314 315 315 315 313 313 311 311 311 311 311 310 309 309 307 307 305 304 306 311 314 314 313 313 312 312 313 313 314
303 304 306 309 310 311 311 311 310 308 308 308 307 307 307 307 306 306 307 307 306 306 306 306 306 306 307 307 309 311 311 311 311 312 312 313 312 311 311 313 314 314 314 314 314 313 312 311 310 311 312 312 312 312 313 312 312 312 312 312 313 314 313 313 312 311 311 310 309 308 307 305 304 303 303 300 304 310 313 312 312 312 312 312 314
303 305 306 309 309 309 309 308 308 306 305 305 305 305 305 305 304 304 304 304 304 303 304 304 304 304 304 304 305 307 309 310 310 309 308 308 307 307 307 308 309 309 309 309 310 310 311 308 306 306 307 309 307 307 308 307 307 308 309 309 310 311 312 312 313 313 311 309 309 307 306 304 303 302 303 301 301 305 310 312 312 312 312 313 313
303 305 306 308 308 309 308 307 306 306 305 304 304 304 303 303 303 302 303 302 302 302 302 302 302 302 302 302 303 304 305 306 308 308 307 306 305 305 306 307 307 306 306 306 307 307 307 309 306 305 305 304 304 303 303 303 304 306 306 306 307 308 309 311 312 309 310 307 304 302 302 302 301 303 300 300 301 301 305 309 311 312 312 313 313
304 305 307 308 308 308 307 306 305 305 305 304 303 303 302 302 302 301 301 300 300 300 299 299 299 300 300 300 301 302 303 303 304 305 304 304 303 304 304 305 304 303 303 302 302 303 305 305 305 304 303 301 300 300 300 300 302 304 305 304 305 305 306 308 307 305 304 303 302 301 301 300 300 300 300 300 300 300 301 303 307 308 307 311 312
303 305 306 307 307 308 307 306 306 306 305 305 304 303 302 301 301 300 299 298 298 297 297 296 296 297 297 298 298 298 299 300 301 302 302 302 301 301 301 301 301 300 300 300 299 300 300 301 303 303 302 300 298 299 298 298 300 302 303 305 304 305 305 304 304 301 300 301 302 302 302 300 300 300 300 299 299 300 300 300 299 300 300 307 310
303 304 304 306 306 306 306 306 307 307 306 305 303 302 301 299 298 297 296 295 295 295 294 294 294 295 295 295 295 296 296 297 297 299 299 299 298 298 298 298 298 298 297 296 297 297 297 298 298 301 300 298 298 298 297 297 298 297 297 299 302 304 304 302 301 301 302 302 301 300 300 299 300 300 301 301 301 300 300 299 299 299 300 303 308
302 303 303 304 305 304 304 303 303 304 304 302 301 300 298 296 295 294 293 293 293 293 293 293 293 293 294 294 294 294 294 295 295 295 295 296 295 295 294 294 294 293 293 293 294 294 295 295 296 298 298 296 296 297 296 296 295 295 297 298 302 303 301 299 297 298 300 300 299 300 299 299 300 299 299 299 299 299 300 299 299 300 300 298 300
299 300 300 302 302 303 302 302 301 301 301 299 297 296 295 293 292 291 291 291 291 291 290 291 292 293 292 292 292 293 293 293 294 294 293 293 292 292 292 292 292 291 291 292 292 292 292 292 293 294 297 296 295 296 295 294 292 291 291 294 298 300 299 297 296 297 299 299 300 300 300 300 298 297 297 297 298 298 299 298 298 298 299 299 299
298 299 300 300 301 301 300 300 299 298 297 296 295 294 294 294 292 291 291 290 291 291 291 291 291 291 291 292 292 292 292 292 292 293 293 292 292 291 291 291 291 291 290 290 290 290 291 290 290 290 291 293 293 294 293 293 290 291 292 291 291 293 298 294 295 296 295 299 297 298 299 299 297 295 295 296 297 297 297 294 294 295 297 298 298
297 297 298 299 300 300 299 298 296 295 294 294 294 293 293 292 292 291 291 290 289 290 290 290 290 290 290 291 291 291 291 291 292 292 292 291 291 291 290 290 290 291 290 289 289 289 290 290 289 289 289 288 288 288 291 291 289 290 287 289 290 290 286 288 291 293 294 296 294 295 296 297 294 293 293 294 294 294 292 290 290 292 294 296 297
295 295 296 298 299 298 297 296 295 294 294 293 293 292 292 291 291 291 291 290 290 289 289 288 289 289 289 289 290 290 291 290 291 291 291 290 290 290 290 289 289 289 289 289 288 288 288 289 289 288 287 287 287 286 288 289 289 290 289 287 286 285 285 287 289 289 292 293 291 292 294 293 292 291 292 293 290 292 290 289 289 290 292 293 295
294 294 295 296 296 297 297 296 295 294 293 293 293 293 291 291 290 289 288 287 286 286 286 286 287 287 288 288 289 290 290 289 289 289 290 289 289 289 289 288 288 288 289 288 288 288 288 287 288 288 287 288 287 286 285 288 288 289 288 287 288 286 282 285 286 283 289 289 288 289 291 289 289 290 290 291 289 290 290 289 289 289 290 292 293
292 293 293 294 295 295 295 295 294 294 296 294 294 294 292 291 290 289 288 287 286 287 287 287 287 287 288 288 288 288 289 288 288 288 288 288 288 288 287 287 287 287 288 287 287 287 287 287 288 287 287 288 287 284 284 285 285 286 287 287 287 286 285 284 281 283 279 283 285 286 287 287 287 287 289 290 289 289 289 288 288 288 289 290 292
291 292 292 293 293 293 293 293 292 292 293 293 293 292 291 290 289 289 289 288 287 287 288 288 288 288 287 287 287 288 288 288 288 288 288 288 287 287 287 286 286 286 287 286 286 286 287 287 287 286 286 286 286 284 283 284 283 284 286 285 285 285 284 284 284 282 280 278 280 284 285 285 285 285 287 286 287 289 289 288 288 288 288 289 291
291 291 291 291 292 292 291 291 291 291 291 292 292 291 291 290 289 289 288 288 288 288 288 289 288 288 287 287 286 286 287 288 288 287 287 287 287 286 286 285 285 285 286 286 286 286 285 285 285 285 284 285 285 285 283 283 283 283 283 283 283 283 282 282 283 283 279 278 277 279 280 283 282 283 285 285 287 288 287 287 288 289 289 289 290
290 291 290 290 291 290 290 290 290 290 291 291 291 290 290 290 289 288 288 288 288 288 288 287 287 287 286 286 286 286 285 286 286 286 286 286 286 286 285 285 284 285 285 284 285 285 285 284 285 284 284 283 284 284 284 283 283 283 282 283 282 281 280 280 280 280 279 280 278 278 279 280 279 281 283 283 284 285 285 286 287 288 288 288 289
288 289 289 289 289 289 289 289 289 290 290 290 290 290 290 290 289 289 288 288 288 288 287 287 287 286 286 286 285 285 285 285 285 285 285 285 285 285 284 284 284 285 284 284 283 284 284 284 284 284 283 283 283 283 284 283 283 282 282 281 281 281 281 279 279 280 279 277 277 277 278 279 280 280 281 283 284 284 285 285 287 288 288 288 289
Wind_Speed
2 11 9 9 7 10 12 12 12 12 12 12 12 12 11 11 11 11 11 10 11 10 11 11 10 10 11 11 12 11 12 12 12 11 10 11 12 13 13 13 14 14 15 15 16 15 15 16 17 16 16 16 16 16 15 15 15 14 14 13 13 13 12 12 11 11 11 11 13 14 14 14 15 16 16 17 16 18 16 16 14 11 8 12 17
4 10 9 7 8 10 11 11 12 12 12 12 12 12 11 10 10 10 10 10 10 10 10 10 10 10 10 11 10 11 12 12 13 12 10 10 11 12 13 13 13 14 15 15 15 16 16 15 16 16 16 16 16 15 14 14 14 13 13 12 11 11 10 10 9 8 9 9 9 12 13 14 14 14 15 16 17 17 16 16 16 9 7 15 16
6 8 8 9 7 8 10 11 11 11 11 11 11 12 11 10 10 10 10 10 9 9 9 9 9 10 10 10 11 11 12 11 12 13 12 11 10 11 12 12 12 13 14 15 14 15 15 16 16 16 16 16 16 15 14 14 13 12 12 11 11 10 9 9 8 7 6 5 4 8 10 12 13 14 14 15 16 16 16 17 16 15 11 18 15
6 8 7 8 7 7 8 11 10 10 10 10 11 11 11 10 10 9 9 9 9 9 9 9 9 9 9 10 10 10 11 11 11 11 11 10 9 10 11 11 12 12 13 14 14 15 15 16 16 16 16 15 15 15 14 13 13 12 12 11 10 9 9 8 9 9 9 4 3 5 3 5 7 12 13 15 15 16 16 16 18 17 18 17 18
3 9 8 7 4 4 7 9 11 10 10 11 11 11 11 10 9 9 8 8 8 8 8 9 9 9 8 9 10 10 10 11 11 10 10 9 9 9 10 10 11 13 13 13 13 15 15 15 15 16 15 15 15 14 13 12 12 12 12 11 10 10 10 10 9 10 11 11 7 2 3 6 5 11 13 14 15 15 15 17 18 18 17 17 17
1 9 8 7 5 4 7 8 11 11 11 11 11 11 10 10 9 9 8 8 8 7 8 7 9 8 9 8 9 9 9 10 10 10 9 9 8 9 9 9 12 12 12 12 13 14 14 15 15 16 16 15 15 14 13 12 11 11 11 10 10 10 10 10 11 11 11 12 8 2 6 6 5 5 12 11 13 14 14 16 16 17 16 17 16
4 8 7 6 6 6 7 8 10 11 11 12 11 11 10 10 9 9 8 8 7 7 6 7 7 7 8 9 9 9 9 9 9 9 9 8 9 8 8 9 10 11 11 11 11 14 14 15 15 15 16 15 15 15 14 13 12 11 10 10 10 10 9 9 9 12 12 9 4 6 5 7 5 4 11 12 12 14 15 16 16 16 16 15 15
3 4 7 7 5 8 7 8 8 11 12 11 12 11 11 10 9 9 8 7 7 7 6 7 7 6 7 9 8 8 9 8 8 7 8 8 8 8 8 9 10 10 11 11 10 14 14 14 15 15 15 15 15 14 13 12 12 11 10 10 10 11 10 10 10 11 13 6 6 6 5 4 5 4 10 13 14 15 16 16 15 15 15 15 13
2 2 8 8 9 11 8 7 8 9 11 12 12 12 11 11 10 10 9 8 7 7 7 6 7 8 6 7 8 8 8 8 8 7 7 7 7 8 8 9 9 9 9 10 11 13 15 15 15 15 15 15 14 14 13 12 11 11 10 10 10 10 11 11 11 11 6 2 6 4 5 4 4 5 10 13 15 16 16 12 11 14 15 14 13
2 1 5 8 8 12 10 8 8 7 9 11 10 11 11 11 10 10 10 8 7 6 7 7 6 8 7 7 7 7 7 7 7 7 7 7 6 6 8 9 9 8 9 10 12 13 16 15 15 15 15 14 14 14 14 13 12 11 10 10 10 10 11 10 11 9 5 4 4 4 4 8 6 5 9 12 15 15 14 14 11 11 11 13 13
3 2 9 8 8 10 10 8 8 7 8 9 9 11 11 11 10 10 10 9 8 7 7 7 8 7 6 6 7 6 7 7 7 6 6 6 6 6 7 8 9 7 9 12 13 15 16 15 15 15 15 14 14 14 13 13 12 12 12 11 12 12 12 11 8 4 4 6 6 5 7 14 5 4 10 12 15 14 13 13 13 13 13 13 13
3 9 8 8 8 9 8 7 7 8 7 8 8 8 7 10 10 10 10 9 9 7 7 7 8 7 6 5 5 5 6 7 7 6 5 5 5 6 7 8 9 10 12 13 14 15 15 14 14 14 15 14 14 14 13 12 12 12 12 12 13 13 13 11 7 5 5 5 4 3 7 7 5 6 12 13 14 13 13 13 12 13 13 12 13
6 5 7 6 6 8 8 8 6 7 6 8 9 8 8 8 9 8 8 8 7 7 7 6 6 8 7 5 5 5 5 6 6 6 5 4 5 5 8 8 8 10 12 14 14 14 13 13 13 14 14 14 14 14 13 13 12 12 12 12 13 13 12 11 5 5 5 5 5 6 7 4 4 8 10 12 12 13 14 13 13 13 12 12 12
5 5 6 6 5 7 8 8 7 5 6 7 9 8 7 7 7 9 8 7 6 6 6 6 6 8 7 6 4 4 5 5 6 5 5 4 4 6 7 8 8 10 12 13 13 12 12 12 12 13 13 13 13 13 13 12 12 12 13 13 13 13 12 8 6 4 5 4 4 5 6 5 4 8 9 9 12 13 12 12 13 12 11 11 11
5 5 4 4 6 4 7 8 7 6 6 5 5 7 8 6 6 6 8 7 6 4 5 5 4 6 7 5 4 3 4 5 4 5 5 4 5 6 6 5 8 10 12 12 12 11 11 11 12 12 12 11 12 12 11 11 11 12 12 12 12 12 11 7 7 3 5 5 5 7 7 6 10 10 11 11 11 11 10 11 12 11 9 10 11
4 3 3 4 3 5 4 6 6 6 7 7 4 4 6 7 7 6 7 6 5 6 4 4 4 6 5 5 4 3 4 5 5 5 3 5 6 7 6 4 5 9 11 11 11 11 10 11 11 11 10 10 11 11 11 10 10 10 10 10 10 11 11 9 6 7 5 5 6 7 7 7 13 11 10 10 9 9 10 11 11 9 8 9 10
4 4 4 4 5 1 4 5 5 6 6 5 6 3 5 5 5 6 4 6 5 6 6 6 4 5 6 6 5 5 4 6 6 6 3 4 5 8 5 5 5 7 9 10 11 11 10 10 10 9 8 9 9 10 10 9 9 8 8 7 8 8 10 9 5 4 5 5 7 6 7 6 10 11 11 10 9 10 10 11 10 9 8 9 10
4 4 4 4 5 5 5 2 5 5 3 4 3 0 3 4 5 4 3 3 1 4 5 5 5 4 4 5 6 6 6 5 7 7 5 3 7 7 7 5 5 7 9 10 11 10 10 9 9 8 7 7 8 9 9 9 8 7 6 6 6 7 8 8 4 4 4 6 6 6 6 9 14 11 10 10 11 11 11 10 10 8 8 8 9
5 6 6 4 3 4 5 3 0 2 5 4 5 7 6 5 5 6 6 5 3 2 3 2 2 5 5 5 5 6 6 6 4 7 5 5 7 7 5 6 6 8 9 10 10 10 8 8 8 7 7 7 8 8 8 8 7 6 6 6 7 8 8 5 4 4 5 7 6 6 6 12 12 11 10 11 11 11 11 10 9 8 8 9 8
5 5 4 4 4 2 2 4 5 5 2 4 4 6 9 8 7 6 5 6 7 6 6 4 5 2 6 6 6 5 5 4 6 5 6 5 5 4 5 4 4 7 9 10 10 9 8 7 6 6 6 6 6 7 7 7 6 5 5 6 7 7 5 5 5 5 6 6 6 6 8 12 11 10 9 10 11 11 10 10 8 8 8 8 7
4 5 5 6 4 5 4 4 3 4 5 4 2 3 8 8 6 8 8 6 6 7 7 6 6 5 5 6 7 5 5 4 4 3 6 4 6 6 7 5 4 4 7 9 10 9 8 6 6 5 6 6 5 4 6 6 5 5 5 6 7 5 5 5 4 5 6 6 6 6 11 11 11 9 9 9 9 9 10 8 9 9 9 9 9
5 4 5 6 7 5 6 3 4 3 4 5 5 2 5 6 5 4 4 5 5 6 5 3 4 3 4 4 3 4 5 5 5 5 4 5 6 7 6 5 6 5 8 10 10 9 8 6 6 5 4 5 6 2 3 3 4 4 5 7 6 5 4 4 4 5 5 5 5 5 10 10 10 9 9 8 7 8 9 8 7 8 7 8 7
5 5 5 5 5 6 5 5 5 6 4 4 4 2 6 4 4 6 5 5 5 5 4 3 3 4 4 3 4 4 4 5 6 5 3 7 6 7 6 5 6 6 6 9 8 8 7 6 6 4 3 3 3 4 3 1 0 3 4 4 5 4 5 5 4 4 5 4 4 6 8 8 8 8 8 9 10 8 6 8 8 7 8 7 7
4 4 5 4 6 5 6 6 5 6 4 4 4 5 2 3 3 5 6 6 5 4 3 4 3 1 3 1 1 2 2 3 8 8 6 5 5 6 6 5 5 5 7 6 6 6 6 4 4 4 3 1 0 5 3 3 1 1 4 5 4 4 3 4 4 4 4 4 3 7 8 8 7 7 7 8 9 10 10 7 7 6 6 6 5
4 4 5 4 6 6 5 4 4 4 4 5 3 4 4 1 3 1 3 4 5 3 2 1 1 3 3 3 1 3 4 5 2 3 4 5 6 5 4 4 4 3 5 3 4 4 3 3 1 2 2 1 6 4 5 4 5 5 5 5 3 3 3 3 3 4 3 3 3 6 7 7 7 6 7 7 8 9 9 10 10 9 7 7 6
4 5 4 5 6 6 5 5 3 4 5 4 3 1 3 3 3 2 4 5 6 4 4 3 5 3 3 2 3 5 4 3 2 3 1 2 3 1 4 5 4 4 4 3 4 4 3 2 3 3 1 4 5 4 4 4 4 4 4 3 5 4 3 3 3 3 3 3 3 6 4 6 7 6 6 6 7 8 9 10 11 11 10 12 7
4 4 4 4 5 4 5 6 3 3 4 4 2 1 0 3 5 8 8 8 6 7 7 7 7 7 6 6 5 3 3 4 4 4 4 3 3 1 2 1 4 2 4 2 2 3 4 2 2 1 2 3 4 4 4 3 2 3 3 3 3 3 3 3 3 4 4 2 3 5 3 3 5 6 6 7 7 8 8 9 10 11 12 13 14
4 5 4 5 5 5 6 7 2 3 4 4 0 1 1 7 9 8 8 7 7 7 6 5 7 7 6 6 5 5 4 5 6 6 4 3 4 5 5 4 5 3 4 1 2 3 0 0 4 6 5 3 3 3 3 2 1 1 2 3 1 2 3 2 2 2 3 1 1 3 3 1 2 4 4 6 6 7 8 8 9 11 11 12 14
5 5 5 5 5 6 7 5 1 1 3 4 2 4 8 8 7 8 8 7 7 7 7 7 7 6 7 7 6 7 6 6 6 6 6 6 5 5 5 4 4 2 1 1 2 2 5 6 6 6 6 5 5 5 4 3 2 3 3 2 1 1 0 1 1 1 2 1 3 2 2 2 1 2 3 3 4 5 7 7 9 9 10 10 11
6 6 6 5 6 7 6 7 7 4 5 6 7 7 7 8 7 7 7 7 6 7 6 7 6 7 7 7 7 6 7 6 6 6 7 7 7 7 7 6 7 6 6 6 6 6 5 5 5 5 5 5 5 5 5 4 4 2 3 2 2 3 1 1 0 0 2 3 1 3 4 3 3 3 3 4 4 4 5 7 7 8 8 9 9
6 7 6 6 6 6 5 5 4 5 7 8 8 8 8 8 7 7 7 7 7 7 7 7 7 7 6 6 6 8 7 7 6 6 6 7 7 7 7 6 7 6 6 6 6 6 5 5 4 5 5 5 4 3 2 2 2 1 3 2 0 1 1 1 1 0 2 3 3 1 3 3 3 3 4 5 4 4 5 6 7 7 8 8 8
6 6 6 6 5 6 7 8 7 7 9 8 7 9 9 8 7 7 8 7 7 7 7 7 7 6 7 8 8 7 7 7 7 6 6 6 7 7 7 8 7 7 7 6 6 6 6 4 4 4 3 3 2 2 2 3 5 2 1 2 1 1 1 1 3 3 1 2 3 4 1 2 3 4 4 5 6 7 7 7 7 8 8 9 9
4 5 5 5 6 6 6 8 7 8 10 9 9 7 7 8 8 7 7 7 8 7 8 8 8 9 9 10 10 10 7 6 7 7 6 6 6 6 6 6 5 4 6 8 8 7 6 5 5 5 5 5 5 5 5 4 4 6 6 3 2 3 2 1 2 2 2 3 4 3 4 2 1 4 3 4 6 6 7 9 11 11 11 11 11
4 4 6 7 6 4 4 5 7 11 10 9 9 8 8 8 7 8 8 9 8 9 8 8 8 8 8 9 9 9 9 8 6 4 5 7 7 7 6 6 6 5 6 7 7 5 5 7 7 5 5 5 5 5 4 5 5 5 5 5 6 5 4 3 3 1 2 2 3 4 4 4 5 5 2 5 6 5 5 7 10 12 13 13 12
4 5 6 6 6 6 5 6 8 9 10 10 11 9 8 9 8 8 8 9 8 8 8 8 8 7 7 8 8 8 9 10 10 9 9 9 8 8 9 8 7 7 8 7 5 5 7 8 6 6 4 4 3 2 3 3 4 5 4 5 5 6 5 4 4 1 1 1 3 3 4 5 6 6 6 6 7 3 5 8 10 12 12 13 13
5 5 5 6 7 7 6 8 9 10 10 10 9 9 10 9 8 8 9 9 8 8 8 8 7 7 7 8 8 8 7 9 10 9 8 8 7 8 8 8 9 8 7 7 8 8 6 7 7 7 7 8 8 8 7 7 6 6 5 6 5 5 6 5 5 2 4 5 5 5 7 6 6 7 6 7 6 4 5 6 10 12 12 12 13
5 5 5 5 6 7 7 8 9 10 11 10 10 10 9 10 10 9 10 9 9 9 8 8 8 8 7 8 8 8 9 8 6 7 7 7 7 7 7 8 7 7 7 7 8 7 7 5 7 8 7 6 6 6 6 6 6 5 4 4 4 3 4 5 4 4 5 6 6 6 6 5 6 7 6 6 6 7 7 9 9 10 11 10 12
4 4 3 4 6 6 7 8 9 9 9 9 9 9 9 9 9 9 10 11 11 9 8 8 8 8 8 8 9 9 9 9 9 7 8 8 7 8 9 9 9 8 8 8 8 7 6 6 5 5 9 8 7 7 7 7 5 5 5 4 4 2 3 4 5 7 6 5 4 4 4 4 6 5 6 5 5 6 5 8 10 11 12 10 13
3 3 3 3 4 4 7 8 9 9 9 9 9 10 10 10 10 10 11 11 10 9 8 9 8 8 9 9 9 9 9 9 9 8 8 8 8 9 9 9 8 8 9 9 9 9 8 8 5 6 7 8 6 6 7 6 6 5 4 5 2 0 1 5 6 6 4 3 5 4 5 6 5 4 5 4 4 5 5 6 6 7 8 13 15
3 4 4 4 4 5 6 5 5 7 7 7 7 7 8 8 9 9 11 10 9 9 9 9 8 9 9 9 9 9 9 9 9 9 9 9 9 9 9 9 9 8 9 10 9 8 9 9 8 5 6 6 7 8 9 7 6 4 4 5 3 3 5 6 7 5 5 5 5 6 7 6 7 7 7 8 7 6 7 7 7 7 6 9 12
4 4 4 4 5 5 6 7 6 6 6 5 5 6 7 8 9 10 9 8 8 9 10 9 10 9 10 10 10 9 10 10 10 9 9 9 9 8 9 9 8 9 9 9 8 9 9 8 7 6 6 7 8 9 11 6 6 9 7 7 7 7 9 8 10 8 7 5 6 7 5 7 7 8 8 7 8 8 8 8 9 8 8 7 7
4 4 4 4 5 5 6 6 6 7 7 7 7 8 7 6 8 7 8 7 8 9 9 8 9 9 10 10 9 9 10 10 10 9 10 9 9 9 9 9 9 9 8 8 9 10 11 11 8 8 6 7 6 8 10 7 8 6 5 6 5 5 5 9 10 8 8 8 7 7 5 6 7 8 7 7 6 6 7 8 8 8 8 8 7
4 3 3 4 4 5 6 6 6 6 7 7 8 8 7 7 8 7 9 9 8 8 8 8 8 10 10 10 10 10 10 10 10 9 9 9 9 9 8 8 8 7 9 10 10 11 9 10 10 8 6 6 5 6 9 10 6 6 3 3 4 4 2 8 9 8 8 7 8 8 7 7 8 8 7 7 7 6 7 8 9 9 8 8 8
4 4 3 4 5 5 6 7 7 6 7 8 9 9 11 10 10 10 10 10 9 8 9 10 10 11 12 10 10 9 10 10 10 9 9 9 9 9 8 8 9 8 7 8 10 10 9 9 9 9 6 7 6 8 8 10 9 8 7 2 3 2 4 5 9 7 5 7 9 8 7 6 7 7 7 7 7 6 7 7 9 9 8 8 8
4 3 3 4 4 6 6 7 7 7 7 9 12 11 12 11 10 9 8 9 8 8 9 10 9 8 9 10 9 8 9 9 9 9 8 9 9 8 8 8 8 8 7 8 8 8 8 7 9 8 9 6 7 6 8 9 11 9 4 4 5 5 2 5 5 6 8 7 8 9 6 7 8 8 7 5 6 6 6 7 8 8 8 8 8
4 3 3 4 4 6 6 6 7 7 8 7 9 9 8 8 7 7 9 9 9 8 9 8 7 8 8 5 8 8 8 8 8 8 8 8 9 9 8 8 8 8 7 7 6 7 9 9 8 6 9 9 5 7 7 8 7 10 8 5 3 1 4 6 4 6 6 3 6 8 6 7 9 10 8 4 7 7 5 6 7 8 8 8 8
4 2 3 4 5 5 5 5 5 4 4 5 5 4 5 6 7 8 8 9 11 6 6 6 7 6 6 7 7 7 7 8 8 7 8 8 8 8 8 7 7 7 6 7 8 8 7 7 7 8 7 7 7 7 7 6 6 7 8 7 8 5 4 3 3 4 7 2 3 6 6 8 8 8 7 5 9 7 4 5 7 7 7 8 8
4 4 4 4 5 5 5 5 4 4 4 6 8 8 9 9 9 9 9 8 9 10 7 7 6 6 8 7 7 7 8 8 8 8 8 8 8 8 8 8 8 7 7 7 7 6 7 6 7 7 7 7 6 6 5 7 6 5 7 7 6 5 6 5 3 3 3 8 11 3 1 5 6 6 5 9 8 6 6 8 8 7 7 7 7
4 4 4 4 5 5 6 5 6 5 5 7 8 8 8 9 9 10 11 8 9 8 7 6 7 6 7 6 7 7 7 7 7 7 8 8 7 7 7 7 7 7 7 7 7 7 7 7 8 9 7 7 7 5 6 7 6 6 6 5 5 5 6 4 4 5 3 5 6 6 11 7 4 4 6 6 6 7 8 9 8 7 6 7 7
4 5 4 4 5 5 6 6 6 6 6 7 8 8 8 8 10 10 13 10 8 8 7 7 6 6 8 7 7 7 6 6 7 6 7 7 7 7 7 7 7 7 7 7 7 7 7 7 6 6 7 7 6 6 7 6 6 6 6 5 5 5 4 3 3 5 3 3 5 9 7 12 13 6 7 7 7 9 8 8 8 7 7 7 7
4 5 5 5 5 5 6 7 6 6 6 7 7 9 8 8 10 10 11 12 10 9 9 8 7 6 8 7 6 6 6 6 6 7 7 7 7 7 7 7 7 7 7 7 7 7 6 6 6 6 7 7 7 6 7 6 6 7 7 6 6 5 4 3 4 5 4 4 6 6 6 6 7 12 6 8 10 8 8 8 8 7 7 7 7
Wind_Direction
197 121 118 124 133 138 144 139 135 132 128 125 119 116 114 108 104 101 100 99 103 98 95 94 95 91 89 92 75 76 79 79 76 72 72 68 73 81 83 81 79 75 73 70 65 64 61 59 58 56 53 50 47 44 41 39 38 40 42 44 43 42 40 42 37 36 31 45 61 57 56 54 54 54 55 54 54 54 53 55 51 46 43 53 53
140 122 124 120 131 146 143 142 138 135 131 126 123 116 111 106 104 103 101 101 100 101 102 99 96 94 93 86 87 84 80 77 74 78 83 76 72 79 82 84 83 82 79 75 71 68 66 63 58 53 49 45 42 38 37 36 35 35 37 38 41 41 41 34 33 27 32 29 46 64 55 56 57 58 58 57 54 52 52 55 54 51 48 51 52
111 121 125 121 124 147 141 144 142 138 133 128 123 118 110 108 108 107 107 107 106 103 101 100 97 98 97 89 90 85 79 75 72 72 78 81 77 77 83 86 88 87 83 79 75 71 67 63 58 53 49 44 39 35 31 31 31 31 31 33 34 36 33 28 16 10 21 37 24 55 60 55 59 61 62 61 60 56 51 51 54 52 46 47 47
120 115 120 114 106 137 140 143 142 137 134 126 123 120 118 115 112 111 110 109 109 105 101 98 98 96 97 94 87 82 79 74 71 70 74 80 83 85 85 87 89 87 82 81 78 72 68 64 59 54 48 44 39 34 30 27 26 26 26 27 29 27 28 20 6 350 349 1 31 342 72 59 50 61 66 65 61 59 56 53 49 51 50 45 41
125 116 121 118 114 107 138 139 143 144 138 133 128 126 124 120 118 116 116 114 109 108 110 105 102 104 100 96 88 84 77 73 68 66 70 77 82 87 89 88 87 79 73 70 73 72 68 62 57 52 47 42 37 33 31 28 25 23 24 21 23 25 20 13 356 343 340 338 335 4 120 90 53 56 63 63 66 62 59 56 51 46 45 46 41
122 117 129 134 135 118 132 145 146 145 144 138 135 131 129 125 122 122 119 118 113 112 110 106 105 108 103 97 92 84 80 75 71 67 67 73 81 86 90 91 87 84 80 74 71 71 64 58 53 48 43 38 33 30 29 28 26 24 23 24 22 22 18 6 351 336 333 330 327 38 87 82 71 51 59 56 62 67 64 57 52 46 41 37 38
145 125 132 141 140 133 141 148 150 149 145 144 139 136 134 133 131 127 128 125 124 117 111 110 109 106 108 99 92 86 81 79 75 71 67 66 73 88 95 94 87 86 80 77 70 71 62 57 51 46 41 36 30 27 25 25 25 24 25 24 25 18 13 3 346 334 335 327 9 33 48 84 83 65 57 56 57 52 53 54 47 41 40 36 34
91 132 140 136 113 127 136 147 151 153 145 155 143 145 142 142 139 134 133 134 132 131 122 117 117 104 105 103 97 91 84 81 79 73 69 63 64 80 93 90 84 78 82 79 76 70 64 57 49 44 40 36 30 26 24 24 25 26 27 28 25 16 6 356 344 340 327 325 33 24 47 62 69 72 56 60 55 54 49 44 42 40 38 34 33
112 245 134 121 130 130 129 140 149 160 158 152 151 149 148 146 145 142 141 140 140 140 130 126 123 122 123 114 111 104 96 89 82 75 77 70 64 76 90 92 90 85 77 75 76 70 66 55 47 43 39 34 30 26 24 23 25 28 31 33 26 14 2 353 347 334 320 297 61 34 12 44 80 64 59 64 60 56 52 49 43 39 34 31 29
169 199 107 110 130 135 130 143 150 144 164 154 156 153 151 148 150 148 145 146 150 147 140 136 133 132 135 125 117 115 112 100 91 85 82 85 77 81 87 95 91 80 77 78 73 73 64 56 50 43 38 34 31 28 26 24 24 27 31 32 22 14 9 6 345 331 310 9 68 46 23 56 57 66 66 65 66 60 54 48 45 40 33 32 32
156 131 79 100 117 123 126 134 145 149 162 159 167 158 155 152 151 154 151 150 153 155 149 147 141 134 136 133 131 126 117 108 99 95 90 90 91 93 96 92 90 84 75 75 74 69 63 57 51 45 39 35 32 31 31 28 26 27 27 24 19 12 7 358 338 308 360 25 30 2 39 78 65 58 67 64 69 63 57 48 39 36 34 33 35
75 76 93 98 100 90 88 106 131 152 167 167 158 163 161 154 156 157 156 156 153 156 158 155 145 140 141 145 135 129 118 113 107 101 99 90 88 87 99 86 84 73 69 76 74 66 63 58 54 48 43 37 34 33 32 32 32 29 26 21 15 12 1 342 342 336 31 21 28 359 60 57 61 61 63 62 64 62 57 48 38 33 34 36 37
27 71 106 112 99 93 80 75 108 154 171 158 164 163 168 167 153 156 160 159 158 157 161 161 141 144 145 150 145 134 129 119 118 110 100 98 90 89 86 100 95 85 78 76 73 73 69 63 60 55 47 40 36 35 35 34 33 31 26 19 15 11 360 339 339 20 16 30 15 21 63 60 40 56 60 67 59 54 53 43 34 34 35 40 41
32 16 81 101 108 103 88 76 62 142 161 167 164 164 176 173 160 166 160 164 167 163 159 159 149 144 148 151 146 139 125 129 123 121 113 109 98 97 117 109 99 88 87 85 84 79 73 70 65 60 55 48 41 38 41 38 34 31 25 16 11 7 2 347 357 35 22 20 11 30 55 32 36 39 29 55 47 49 45 33 33 31 37 41 41
36 18 22 107 120 111 106 83 78 68 123 144 161 173 180 165 179 172 166 166 166 173 153 148 150 147 152 147 152 137 122 106 119 96 104 109 100 101 98 103 101 96 96 95 90 84 78 71 68 63 58 57 52 48 48 47 43 36 28 16 5 360 7 357 338 30 30 10 9 44 42 28 27 46 49 50 52 51 39 32 30 29 40 41 39
41 18 11 34 86 132 120 99 86 92 80 79 116 165 177 189 189 181 165 165 167 179 154 163 161 146 152 152 148 119 116 126 125 96 80 93 103 104 107 76 85 103 104 100 98 93 85 77 72 67 61 56 59 59 57 56 51 47 36 20 4 358 359 3 343 43 17 11 26 40 26 14 18 42 48 37 37 32 33 33 29 33 46 43 40
32 32 35 47 0 68 128 145 123 89 85 78 67 98 153 183 192 193 184 163 190 176 168 177 164 173 165 165 157 144 148 146 137 137 97 121 122 112 104 114 125 115 108 108 104 97 91 86 82 76 66 58 58 62 66 63 56 49 42 24 11 353 353 3 344 37 30 360 46 38 20 8 12 26 23 18 14 23 26 32 31 37 42 43 41
67 58 45 25 31 358 24 34 145 154 170 160 187 143 118 192 178 166 159 159 173 184 172 171 169 156 168 172 142 130 144 145 143 146 144 146 109 106 125 143 133 119 117 113 111 110 106 101 94 88 78 65 58 60 65 69 61 45 31 17 13 359 347 351 7 10 353 41 51 37 23 7 16 19 15 31 33 28 29 29 31 31 29 34 41
56 64 33 20 55 15 352 3 352 203 189 182 176 189 185 189 176 166 157 153 159 112 76 105 126 154 132 115 130 130 135 142 140 152 166 139 125 130 140 148 142 127 124 123 120 118 114 106 102 97 88 74 62 61 60 61 62 53 18 10 6 356 351 7 7 8 30 60 50 37 17 12 17 15 12 19 29 29 29 23 31 27 22 30 34
55 47 65 56 12 53 352 343 355 346 309 192 192 171 184 168 155 145 158 156 156 147 120 109 98 62 115 123 125 109 121 143 152 151 150 132 123 107 116 119 129 134 133 129 126 124 118 112 107 98 91 80 65 63 61 59 53 40 21 2 2 355 24 15 10 36 37 56 51 30 17 18 17 14 17 15 23 28 24 23 21 17 16 26 17
82 59 40 16 35 33 5 353 350 341 330 330 237 155 163 159 153 154 158 168 157 155 154 141 144 136 139 149 151 159 165 159 165 166 160 147 144 128 134 141 147 141 138 139 141 138 135 131 114 111 103 99 84 59 66 51 48 27 8 1 5 36 32 18 13 48 51 54 43 23 16 18 16 16 14 21 23 27 23 16 21 14 16 15 7
33 54 46 29 9 12 360 350 334 318 346 335 326 96 135 165 170 153 156 163 159 160 158 172 174 162 156 153 189 201 193 161 164 157 169 155 150 151 151 152 163 132 154 151 150 151 147 139 129 122 135 134 142 127 84 65 37 23 2 6 34 21 14 11 27 54 60 64 53 26 23 18 18 14 16 11 17 25 17 8 11 15 8 15 14
37 13 38 42 12 355 6 352 346 343 340 313 300 347 142 180 198 163 162 164 157 166 173 194 187 177 174 187 203 228 201 142 143 154 181 157 152 160 158 168 171 158 158 154 157 154 155 142 133 148 188 164 162 199 141 133 352 352 336 21 47 19 8 19 26 50 81 78 51 32 29 22 13 11 13 11 11 13 14 9 3 8 4 5 12
27 24 18 24 21 9 360 343 0 326 314 303 311 310 239 179 178 160 154 171 149 175 202 179 221 208 178 235 277 253 110 78 143 137 119 140 129 143 158 147 156 162 164 149 153 157 153 134 149 177 193 257 318 51 83 106 126 96 42 35 46 11 21 20 29 21 79 78 59 43 31 20 15 3 0 3 1 8 4 8 358 2 346 344 359
25 38 15 21 26 0 353 336 338 310 295 290 298 311 324 81 61 42 108 132 114 123 85 27 72 48 23 8 358 13 50 99 111 147 167 166 148 145 148 155 152 157 163 147 154 148 154 147 157 221 271 224 75 49 37 28 34 48 49 23 20 12 14 32 33 14 53 86 67 57 29 19 14 2 350 347 352 350 353 353 356 348 348 331 331
25 34 11 13 20 360 338 314 299 282 283 266 253 273 24 350 85 27 69 114 113 87 51 45 45 45 97 43 350 49 13 46 29 44 351 346 82 145 161 171 158 164 178 173 165 148 207 181 202 208 245 107 94 86 59 46 38 42 62 27 13 4 13 8 19 21 26 99 89 67 39 19 6 3 357 342 341 333 336 339 339 339 350 337 308
16 35 21 19 12 346 316 299 269 290 277 276 259 2 7 32 64 39 39 44 52 58 50 41 44 45 45 30 41 55 38 57 55 32 34 22 60 146 201 164 148 140 160 224 89 146 197 216 227 118 72 94 86 87 84 68 50 56 66 53 12 348 10 7 20 21 334 100 103 102 82 28 360 360 357 354 344 331 327 329 327 331 340 347 346
30 26 22 16 0 343 314 305 264 221 234 249 336 186 37 54 55 58 55 53 56 54 53 40 47 45 29 23 24 52 63 50 43 40 9 44 50 54 61 67 53 68 87 81 204 221 156 126 59 35 23 28 72 81 114 109 109 104 97 69 1 346 26 353 19 359 325 28 134 140 139 126 10 342 353 352 346 344 338 329 326 328 331 340 349
29 25 8 4 347 330 308 314 309 281 265 204 185 58 64 67 61 62 61 52 57 56 48 38 44 33 33 29 19 36 42 52 42 38 35 35 42 50 50 53 70 61 128 170 83 79 59 47 55 56 43 39 30 24 23 12 31 68 68 49 345 337 32 8 30 327 309 302 146 211 187 163 260 293 322 336 337 342 340 339 339 329 329 329 336
29 11 7 350 336 325 333 1 5 352 353 65 63 73 59 69 62 65 65 62 66 64 56 52 43 38 30 30 26 28 36 43 55 41 44 38 34 34 33 40 50 38 34 41 33 55 63 62 59 61 58 44 41 24 24 6 347 64 82 37 2 345 24 53 315 264 303 298 174 188 214 178 234 272 287 300 318 331 338 342 334 341 336 332 329
16 8 1 344 327 338 357 16 11 11 56 63 58 70 71 63 60 67 61 61 63 65 57 51 45 40 32 33 40 41 39 37 46 51 49 48 41 34 33 19 38 28 32 40 40 57 63 64 72 74 64 49 56 48 27 326 280 177 145 129 125 307 338 338 345 297 308 324 342 208 226 219 217 256 278 291 303 318 330 331 341 339 339 340 335
14 3 350 328 341 353 5 15 13 38 66 66 62 65 72 69 61 64 59 56 58 58 60 57 50 39 30 30 33 37 47 44 38 41 49 55 51 45 39 39 33 24 24 28 32 39 56 53 47 65 70 93 85 53 357 346 316 313 140 106 33 333 286 345 328 314 313 341 326 319 353 241 265 248 266 302 317 329 329 340 342 345 342 340 337
13 349 343 340 5 4 12 24 29 51 66 68 65 61 69 69 61 58 60 57 57 58 53 47 46 38 33 30 31 22 22 42 50 41 43 55 56 52 45 43 45 44 48 45 40 35 32 31 43 33 29 36 30 6 344 337 343 349 6 13 10 323 288 264 289 323 347 359 336 339 356 351 253 260 287 279 303 321 342 353 356 348 345 345 341
357 341 348 8 358 2 17 39 40 62 58 61 66 59 58 66 56 59 60 59 55 56 52 49 46 46 38 36 37 34 30 20 25 47 54 59 54 53 47 39 30 30 36 49 48 37 38 35 24 33 30 38 38 20 12 5 349 342 344 342 346 325 327 339 313 290 26 341 343 1 6 359 2 32 13 317 303 321 347 3 357 353 346 342 340
0 1 7 356 13 25 30 52 44 60 64 62 68 66 61 65 62 59 58 61 60 61 57 53 51 46 41 35 35 43 44 40 37 37 35 37 38 34 29 24 29 28 29 26 43 43 46 40 23 12 6 46 40 45 27 346 330 333 329 344 331 324 327 321 304 319 286 328 9 351 15 19 26 20 354 348 350 353 5 355 357 352 348 345 341
18 15 8 8 31 33 49 68 62 65 64 64 67 69 67 65 66 65 64 60 62 58 54 52 50 45 41 39 31 35 44 55 55 50 55 51 49 46 40 36 36 38 35 33 31 29 35 46 31 31 26 33 23 17 8 5 355 340 334 331 322 324 327 329 329 347 31 39 16 19 21 24 32 10 358 5 11 17 350 346 345 344 346 347 349
31 24 19 24 44 41 44 67 72 74 76 74 73 75 74 71 69 67 65 62 58 55 49 49 48 44 37 39 33 33 38 41 53 59 60 55 53 51 46 44 38 40 42 37 36 30 28 37 43 40 41 29 21 12 357 352 331 313 301 304 296 315 332 331 344 36 28 36 29 28 21 15 30 21 14 7 6 6 359 349 341 339 338 335 340
50 43 24 33 61 63 58 68 72 75 80 79 78 76 74 74 68 66 64 61 56 53 50 47 46 42 38 38 31 32 31 36 41 44 54 50 52 51 48 42 39 37 37 35 30 19 22 30 39 50 52 33 18 10 352 337 321 311 301 280 279 320 323 336 22 31 45 27 31 37 15 30 41 26 11 359 14 5 355 351 352 355 356 348 345
59 59 59 66 72 83 100 94 90 96 98 92 89 85 81 78 72 66 63 61 55 52 49 48 44 42 42 36 35 33 29 32 38 43 53 48 46 46 49 41 41 41 42 37 31 21 19 10 34 40 53 42 24 9 347 329 325 318 321 297 266 162 360 32 48 37 18 35 41 27 34 31 41 17 5 357 13 7 357 353 358 6 355 349 346
56 50 42 53 60 54 45 49 70 90 83 82 76 73 71 70 71 66 63 57 55 55 49 49 43 45 40 39 37 36 31 32 33 39 51 49 48 44 49 45 43 44 44 41 31 27 19 15 13 42 50 30 24 13 2 350 345 339 329 319 275 120 66 62 42 13 358 40 44 44 43 36 29 10 1 360 6 5 2 359 1 358 355 345 344
59 49 49 51 50 56 61 57 36 48 64 65 63 78 83 79 70 67 72 61 62 59 55 47 46 46 42 42 40 38 36 35 32 35 44 47 48 46 47 45 44 46 45 43 35 30 27 28 17 15 49 38 25 14 4 352 360 359 356 360 40 78 72 59 24 12 16 33 45 46 40 48 31 24 12 10 13 10 6 5 359 352 347 345 340
51 51 53 51 53 49 59 57 41 49 64 73 79 71 64 74 93 84 86 72 67 62 62 51 52 49 47 44 42 40 41 41 34 35 42 43 46 43 42 41 41 43 46 41 36 33 30 29 22 16 18 47 37 18 12 359 21 11 340 334 28 31 66 46 29 6 12 16 34 39 28 54 41 29 13 5 6 6 11 11 355 350 345 343 339
79 70 53 65 54 58 60 61 55 59 60 73 76 83 83 84 90 97 93 90 72 75 75 70 62 57 51 46 43 42 41 41 37 35 40 37 41 43 38 35 38 38 42 39 33 33 27 28 27 30 4 19 36 16 25 33 17 337 309 45 4 1 346 14 4 6 17 23 22 19 17 42 38 29 7 0 5 8 17 13 357 346 340 341 337
78 47 46 65 65 64 70 73 73 70 80 83 91 89 93 96 90 95 92 89 93 81 74 64 57 53 48 42 41 41 40 42 37 37 39 39 38 41 39 38 36 34 42 46 38 34 25 24 24 27 28 27 19 14 17 23 30 9 18 18 304 38 1 358 347 319 14 21 17 4 13 32 30 20 9 4 2 13 14 10 359 342 337 335 332
77 57 46 76 81 82 88 90 91 93 94 99 100 106 106 102 106 102 93 91 72 67 68 58 54 56 57 46 42 40 42 43 39 39 41 40 39 39 40 40 42 35 36 44 44 37 30 25 24 29 30 37 25 16 10 20 25 29 47 17 3 28 33 298 324 291 10 350 6 359 357 23 22 12 3 348 358 9 9 1 353 339 330 332 327
93 75 60 77 93 94 95 101 105 108 115 113 114 115 117 118 116 106 96 89 82 68 70 79 68 61 63 58 51 45 45 46 41 41 42 42 41 38 39 41 41 38 37 40 39 36 31 28 19 31 30 23 43 29 22 7 24 19 25 62 94 93 327 306 19 317 357 307 22 347 340 14 14 359 336 350 358 344 357 357 344 333 326 325 323
112 106 87 88 85 88 92 90 94 94 116 128 124 103 91 89 92 98 102 103 106 89 88 87 88 82 80 67 59 50 48 51 44 42 42 41 42 39 38 39 39 40 35 40 39 36 30 30 20 26 30 29 30 43 28 4 358 18 13 11 17 12 20 17 345 320 335 334 37 338 341 2 354 342 331 352 342 329 331 346 333 323 319 318 321
124 106 87 81 91 97 98 100 92 85 74 85 89 97 103 104 106 102 101 101 98 111 106 96 95 99 87 81 72 58 49 47 48 42 40 39 40 39 37 37 37 32 32 37 40 32 33 29 31 26 24 32 36 45 25 12 43 357 1 6 8 2 2 15 28 45 301 314 323 312 314 346 342 326 338 347 327 321 333 328 319 313 309 309 311
123 116 113 108 102 103 103 97 92 86 80 87 96 97 105 115 116 116 106 103 106 107 111 100 98 96 87 78 74 66 57 47 46 48 42 40 40 40 36 37 37 32 29 29 29 33 35 33 29 27 25 20 27 33 42 16 18 16 9 354 4 7 353 349 11 24 2 320 297 337 326 327 328 307 339 323 320 332 319 307 296 291 294 300 303
126 119 116 111 112 110 108 106 100 99 102 103 108 110 117 123 118 120 117 117 116 107 104 104 94 86 87 76 72 69 62 55 44 43 45 41 42 41 41 36 34 31 32 26 23 24 29 28 30 33 28 31 13 31 39 16 16 6 19 7 12 356 353 359 7 6 329 291 302 321 322 328 326 329 334 322 327 319 309 300 294 284 286 285 292
129 126 120 123 126 120 119 111 114 107 107 112 114 118 120 124 121 122 119 121 119 119 113 104 101 87 88 87 80 78 73 64 51 41 44 41 39 40 42 39 33 30 30 29 20 18 20 32 21 28 33 32 17 17 32 19 19 15 7 12 5 10 358 344 336 352 349 323 323 302 310 301 302 313 319 322 314 303 298 304 301 289 278 284 287